Current weather by "City, St" or "zip code"  
 

Current Conditions: SCHELL AHP, AL

Overcast


78.0 F

Last Updated on Oct 21 2021, 12:58 pm CDT
Humidity: 67%
Wind Speed: N 0.0 mph
Barometer 30.13 in
Dewpoint: 65.8 F
Visibility: 10.00 mi
Precip: --
Heat Index: NA
Wind Chill: NA
Current conditions at:

SCHELL AHP, AL (KSXS)

Lat: 31.35 Lon: 85.85

Local Radar Image active severe weather and emergency alerts image image weather storm and storm spotter reports image weather observation monitoring service image
Local
Radar
Active
Alerts
Storm Reports Obs
Monitoring

Sign-up For Email & Text Message Weather Alert Notification Services



Advertise Here

Observation History for SCHELL AHP, AL


Time Wind
(mph)
Vis
(mi)
Weather Precip (in) Temperature (F) Relative
Humidity
Wind
Chill
(F)
Heat
Index
(F)
Pressure
Air Dwpt altimeter
(in)
sea level
(mb)
Rmks
12:58 pm CDT N 0.0 10.00 Overcast -- 78.0 65.8 67% NA NA 30.13 1020.2
11:58 am CDT N 0.0 10.00 Partly Cloudy -- 78.0 66.4 67% NA NA 30.16 1021.2
10:58 am CDT S 4.6 10.00 Partly Cloudy -- 76.0 64.4 67% NA NA 30.18 1021.9
9:58 am CDT S 5.8 10.00 Mostly Cloudy -- 73.0 63.0 70% NA NA 30.18 1021.9
8:58 am CDT S 4.6 10.00 Mostly Cloudy -- 69.0 61.7 78% NA NA 30.17 1021.6
7:58 am CDT N 0.0 10.00 A Few Clouds -- 66.0 62.8 89% NA NA 30.16 1021.3
5:58 am CDT N 0.0 10.00 Mostly Cloudy -- 65.0 62.8 93% NA NA 30.14 1020.6
4:58 am CDT N 0.0 10.00 Overcast -- 64.0 62.6 96% NA NA 30.13 1020.2
3:58 am CDT N 0.0 10.00 Overcast -- 63.0 61.9 97% NA NA 30.14 1020.6
2:58 am CDT N 0.0 10.00 Partly Cloudy -- 64.0 62.4 95% NA NA 30.14 1020.5
1:58 am CDT N 0.0 10.00 Partly Cloudy -- 65.0 62.8 92% NA NA 30.15 1020.9
12:58 am CDT SE 3.5 10.00 Fair -- 65.0 63.0 92% NA NA 30.15 1020.9
11:58 pm CDT SE 3.5 10.00 A Few Clouds -- 68.0 62.8 85% NA NA 30.16 1021.2
10:58 pm CDT N 0.0 10.00 Fair -- 69.0 62.2 80% NA NA 30.19 M
9:58 pm CDT N 0.0 10.00 A Few Clouds -- 69.0 61.3 76% NA NA 30.19 M
8:58 pm CDT N 0.0 10.00 A Few Clouds -- 67.0 62.4 85% NA NA 30.18 M
7:58 pm CDT N 0.0 10.00 Fair -- 71.0 62.4 75% NA NA 30.16 M
6:58 pm CDT SE 3.5 10.00 Fair -- 71.0 62.2 73% NA NA 30.15 1021.0
5:58 pm CDT N 0.0 7.00 Fair -- 76.0 60.6 60% NA NA 30.16 1021.3
4:58 pm CDT SE 4.6 10.00 Fair -- 79.0 59.9 53% NA NA 30.15 1020.9
3:58 pm CDT SE 5.8 10.00 Partly Cloudy -- 80.0 59.0 49% NA 81 30.16 1021.3
2:58 pm CDT SE 5.8 10.00 A Few Clouds -- 80.0 59.4 49% NA 81 30.17 1021.6
1:58 pm CDT E 6.9 10.00 Fair -- 80.0 59.5 50% NA 81 30.19 1022.3

Regional Weather Observation


Enterprise Municipal Airport, AL (KEDN)

Overcast
77.0 F

SCHELL AHP, AL (KSXS)

Overcast
78.0 F

Fort Rucker, Lowe Army Heliport, AL (KLOR)

Overcast
78.0 F

Andalusia, Andalusia-Opp Municipal Airport, AL (K79J)

Overcast
82.0 F

Cairns Army Air Field / Ozark, AL (KOZR)

Mostly Cloudy
80.0 F

Hanchey AHP / Ozark, AL (KHEY)

Mostly Cloudy
80.0 F

Advertise Here


Advertise Here